COSMOS 2251 DEB, 34620

Orbit data source: Space-Track

COSMOS 2251 DEB, 34620 is space debris in LEO originally from a launch on Wed, 16 Jun 1993 UTC launched from the Plesetsk Missile And Space Complex (PKMTR). The debris from Iridium 33, an American commercial communications satellite, has been tracked extensively since its accidental collision with the defunct Russian satellite Cosmos 2251 in 2009. This event, occurring at high speed in low Earth orbit (LEO), generated thousands of pieces of space debris, significantly increasing the risk of further collisions. The Iridium 33 debris cloud has impacted space traffic management and orbital debris mitigation strategies, making it a subject of ongoing study in space situational awareness.

Loading next visibility...
Identifier
34620, 1993-036WR
Orbit
LEO
Country
Flag of CISCIS
Related business
Manufacturer
Unknown
Mission
Spacecraft
Bus & Motor
Unknown
Mass
Unknown
Launch date (UTC)
1993-06-16 (32 years ago)
Launch vehicle
Unknown
Launch site
Plesetsk Missile And Space Complex (PKMTR)
Object type
Payload
Rocket body
Debris
Shape & HBR
Unknown shape, 0.1 m
Radar Cross Section
Small (<0.1 m²)

Expand to show TLE details & history
Last TLE update: 18 hours ago

TLE from 18 hours ago
0 COSMOS 2251 DEB
1 34620U 93036WR  25291.07368226  .00013908  00000-0  36316-2 0  9991
2 34620  74.0519 323.6855 0083929  12.1954 348.1209 14.47358708860219
Epoch: 2025-10-18T01:46Z
TLE epoch observation values (Epoch: 2025-10-18T01:46:06.147Z)
Latitude
-0.00001°
Longitude
-89.65005°
Altitude
678.51 km
Speed
7.548 km/s
True Right ascension
21h 34m 44s
True Declination
0° 00' 00"
Sunlit
Object was in full shadow at epoch
Visualization orbit readout
Latitude
Unknown
Longitude
Unknown
Altitude
Unknown
Speed
Unknown
Apparent Right ascension
Unknown
Apparent Declination
Unknown
Sunlit
N/A
Visualization observer readout
Local Sidereal Time
15:02:20
Azimuth
Unknown
Elevation
Unknown
Doppler factor
Unknown
Orbital elements
Apogee altitude
791.572 km
Perigee altitude
672.224 km
Semi-major axis
7,110.035 km
Eccentricity
0.00839
Inclination
74.0519°
RAAN
323.6855°
Arg. of periapsis
12.1954°
True anomaly
347.92087°
Mean anomaly
348.1209°
Eccentric anomaly
348.02109°
Mean motion
3.62022 °/min
Orbital period
99.44 mins
BSTAR
0.0036316

Documentation

Showing up to 5 results
|